{"data":{"norad_id":68045,"intl_designator":"2026-041F","name":"STARLINK-36864","alt_names":[],"object_type":"PAYLOAD","status":"ACTIVE","operator":null,"country":"US","launch_date":"2026-03-02","launch_site_code":"AFETR","launch_vehicle":null,"mission":null,"orbit_class":"UNKNOWN","rcs_meters":null,"size_class":null,"mass_kg":null,"dimensions":null,"purposes":["comms"],"wikipedia_slug":null,"has_3d_model":false,"image_url":null,"decayed_at":null,"tle_current":{"epoch":"2026-09-19T15:01:57.258624Z","epoch_age_seconds":135042,"freshness":"FRESH","line1":"1 68045U 26041F   26262.62635716  .00023149  00000+0  69430-3 0  9993","line2":"2 68045  53.1588 223.8998 0001353  87.7015 272.4143 15.34393513 31156","mean_motion":15.34393513,"eccentricity":0.0001353,"inclination_deg":53.1588,"raan_deg":223.8998,"arg_perigee_deg":87.7015,"mean_anomaly_deg":272.4143,"bstar":0.0006943,"rev_number":3115,"period_min":93.848154844226,"perigee_km":461.79695271292,"apogee_km":463.6480892993,"semimajor_km":6840.8595210061,"source":"CELESTRAK","updated_at":"2026-09-20T09:00:43.747899Z"}}}